Home > Weather > Leerdam > Past weeks

Flag for Netherlands Past Weather in Leerdam, Netherlands — Yesterday and Last 2 Weeks

Now
71 °F

Overcast.


Feels Like: 75 °F
Forecast: 55 / 72 °F
Wind: 6 mph from West

Location: De Bilt

Current Time: Jul 25, 2016 at 6:06:56 PM

Latest Report: Jul 25, 2016 at 5:00 PM


Visibility: 17 mi

Pressure: 30.09 "Hg

Humidity: 66%

Dew Point: 59 °F

Location of LeerdamLocation

Past Weather in Leerdam — Graph

°F

Leerdam Temperature Yesterday

Maximum temperature yesterday: 77 °F (at 5:00 PM)
Minimum temperature yesterday: 64 °F (at 11:00 PM)
Average temperature yesterday: 70 °F

High & Low Weather Summary for the Past Weeks

 TemperatureHumidityPressure
High90 °F (Jul 20, 3:00 PM)100% (Jul 18, 7:00 AM)30.28 "Hg (Jul 18, 7:00 AM)
Low48 °F (Jul 14, 6:00 AM)37% (Jul 18, 8:00 PM)29.75 "Hg (Jul 11, 4:00 AM)
Average67 °F76%30.04 "Hg
* Reported Jul 10 5:00 PM — Jul 25 4:00 PM, Leerdam, Weather by CustomWeather, © 2016

Note: Actual official high and low records may vary slightly from our data, if they occured in-between our weather recording intervals... More about our weather records

Advertising

Leerdam Weather History for the Previous 24 Hours

Scroll right to see more
 ConditionsComfort  
Time TempWeatherWind HumidityBarometerVisibility
4:00 PM
Mon, Jul 25
70 °FOvercast.5 mph76%30.09 "Hg14 mi
3:00 PM71 °FLow clouds.3 mph87%30.09 "Hg11 mi
2:00 PM69 °FOvercast.5 mph82%30.09 "Hg8 mi
1:00 PM68 °FLow clouds.5 mph90%30.09 "Hg7 mi
12:00 PM67 °FLow clouds.5 mph90%30.09 "Hg6 mi
11:00 AM67 °FFog.3 mph88%30.08 "Hg6 mi
10:00 AM66 °FLow clouds.3 mph90%30.07 "Hg4 mi
8:00 AM66 °FOvercast.3 mph86%30.06 "Hg12 mi
7:00 AM65 °FOvercast.3 mph85%30.06 "Hg16 mi
6:00 AM65 °FOvercast.3 mph86%30.06 "Hg16 mi
5:00 AM61 °FOvercast.1 mph96%30.06 "Hg8 mi
4:00 AM60 °FOvercast.1 mph98%30.08 "Hg9 mi
3:00 AM59 °FOvercast.1 mph100%30.08 "Hg6 mi
2:00 AM60 °FOvercast.1 mph99%30.08 "Hg7 mi
1:00 AM61 °FOvercast.No wind98%30.09 "Hg8 mi
12:00 AM65 °FOvercast.1 mph88%30.10 "Hg25 mi
11:00 PM
Sun, Jul 24
64 °FPassing clouds.1 mph90%30.10 "Hg19 mi
10:00 PM69 °FPassing clouds.2 mph76%30.09 "Hg14 mi
9:00 PM72 °FOvercast.2 mph73%30.08 "Hg19 mi
8:00 PM74 °FOvercast.3 mph70%30.07 "Hg22 mi
7:00 PM76 °FOvercast.3 mph58%30.06 "Hg19 mi
6:00 PM77 °FOvercast.2 mph58%30.07 "Hg17 mi
Weather by CustomWeather, © 2016

See weather overviewHow to use our weather pages